• Em Portugal
  • Lista de países
  • Para 7 dias
  • Temperatura da água
  • Mapas de satélite
  • Mapa do tempo
  • Widgets de tempo
  • user-avatar
    Iniciar Sessão

    Previsão horária em Barisal

    Hoje, 22 Janeiro, Segunda-feira

    Tempo Temperatura Precipitação Vento Pressão Humidade
    00:00 +19°C° 0 mm 2 m/s 758 mmHg 40%
    01:00 +19°C° 0 mm 2 m/s 758 mmHg 41%
    02:00 +19°C° 0 mm 2 m/s 758 mmHg 42%
    03:00 +18°C° 0 mm 3 m/s 758 mmHg 43%
    04:00 +18°C° 0 mm 3 m/s 758 mmHg 45%
    05:00 +17°C° 0 mm 3 m/s 758 mmHg 46%
    06:00 +17°C° 0 mm 3 m/s 758 mmHg 47%
    07:00 +19°C° 0 mm 3 m/s 758 mmHg 45%
    08:00 +20°C° 0 mm 3 m/s 759 mmHg 42%
    09:00 +22°C° 0 mm 3 m/s 759 mmHg 39%
    10:00 +25°C° 0 mm 3 m/s 759 mmHg 35%
    11:00 +26°C° 0 mm 3 m/s 759 mmHg 30%
    12:00 +28°C° 0 mm 3 m/s 759 mmHg 26%
    13:00 +29°C° 0 mm 3 m/s 758 mmHg 24%
    14:00 +29°C° 0 mm 3 m/s 757 mmHg 23%
    15:00 +30°C° 0 mm 2 m/s 757 mmHg 22%
    16:00 +28°C° 0 mm 2 m/s 757 mmHg 24%
    17:00 +27°C° 0 mm 2 m/s 757 mmHg 27%
    18:00 +25°C° 0 mm 2 m/s 757 mmHg 29%
    19:00 +24°C° 0 mm 2 m/s 757 mmHg 30%
    20:00 +23°C° 0 mm 2 m/s 757 mmHg 31%
    21:00 +21°C° 0 mm 2 m/s 758 mmHg 32%
    22:00 +21°C° 0 mm 2 m/s 758 mmHg 32%
    23:00 +20°C° 0 mm 2 m/s 758 mmHg 33%

    Amanhã, 23 Janeiro, Terça-feira

    Tempo Temperatura Precipitação Vento Pressão Humidade
    00:00 +19°C° 0 mm 2 m/s 758 mmHg 33%
    01:00 +19°C° 0 mm 2 m/s 758 mmHg 34%
    02:00 +19°C° 0 mm 2 m/s 758 mmHg 35%
    03:00 +18°C° 0 mm 2 m/s 757 mmHg 35%
    04:00 +18°C° 0 mm 2 m/s 757 mmHg 36%
    05:00 +17°C° 0 mm 2 m/s 757 mmHg 38%
    06:00 +17°C° 0 mm 2 m/s 757 mmHg 39%
    07:00 +19°C° 0 mm 2 m/s 758 mmHg 36%
    08:00 +20°C° 0 mm 2 m/s 759 mmHg 33%
    09:00 +23°C° 0 mm 2 m/s 759 mmHg 31%
    10:00 +25°C° 0 mm 2 m/s 759 mmHg 27%
    11:00 +27°C° 0 mm 2 m/s 759 mmHg 24%
    12:00 +28°C° 0 mm 2 m/s 758 mmHg 20%
    13:00 +29°C° 0 mm 2 m/s 758 mmHg 19%
    14:00 +30°C° 0 mm 2 m/s 757 mmHg 18%
    15:00 +30°C° 0 mm 2 m/s 756 mmHg 17%
    16:00 +28°C° 0 mm 2 m/s 756 mmHg 19%
    17:00 +27°C° 0 mm 2 m/s 756 mmHg 21%
    18:00 +25°C° 0 mm 2 m/s 756 mmHg 23%
    19:00 +24°C° 0 mm 2 m/s 756 mmHg 25%
    20:00 +23°C° 0 mm 1 m/s 757 mmHg 28%
    21:00 +22°C° 0 mm 1 m/s 757 mmHg 30%
    22:00 +21°C° 0 mm 1 m/s 757 mmHg 33%
    23:00 +21°C° 0 mm 1 m/s 757 mmHg 36%

    Depois de amanhã, 24 Janeiro, Quarta-feira

    Tempo Temperatura Precipitação Vento Pressão Humidade
    00:00 +19°C° 0 mm 2 m/s 757 mmHg 40%
    01:00 +20°C° 0 mm 1 m/s 757 mmHg 40%
    02:00 +20°C° 0 mm 1 m/s 756 mmHg 40%
    03:00 +19°C° 0 mm 1 m/s 756 mmHg 39%
    04:00 +19°C° 0 mm 1 m/s 756 mmHg 39%
    05:00 +19°C° 0 mm 1 m/s 756 mmHg 39%
    06:00 +19°C° 0 mm 1 m/s 756 mmHg 38%
    07:00 +20°C° 0 mm 1 m/s 757 mmHg 36%
    08:00 +22°C° 0 mm 1 m/s 758 mmHg 33%
    09:00 +24°C° 0 mm 1 m/s 758 mmHg 30%
    10:00 +26°C° 0 mm 1 m/s 758 mmHg 27%
    11:00 +26°C° 0 mm 0 m/s 758 mmHg 24%
    12:00 +28°C° 0 mm 0 m/s 757 mmHg 22%
    13:00 +30°C° 0 mm 1 m/s 756 mmHg 21%
    14:00 +31°C° 0 mm 1 m/s 756 mmHg 20%
    15:00 +31°C° 0 mm 1 m/s 755 mmHg 19%
    16:00 +30°C° 0 mm 2 m/s 755 mmHg 23%
    17:00 +28°C° 0 mm 2 m/s 755 mmHg 26%
    18:00 +27°C° 0 mm 3 m/s 755 mmHg 29%
    19:00 +25°C° 0 mm 3 m/s 755 mmHg 37%
    20:00 +24°C° 0 mm 3 m/s 756 mmHg 44%
    21:00 +22°C° 0 mm 3 m/s 756 mmHg 52%
    22:00 +23°C° 0 mm 2 m/s 756 mmHg 56%
    23:00 +21°C° 0 mm 2 m/s 756 mmHg 59%

    25 Janeiro, Quinta-feira

    Tempo Temperatura Precipitação Vento Pressão Humidade
    00:00 +21°C° 0 mm 2 m/s 756 mmHg 63%
    01:00 +21°C° 0 mm 2 m/s 756 mmHg 65%
    02:00 +20°C° 0 mm 2 m/s 755 mmHg 68%
    03:00 +20°C° 0 mm 2 m/s 755 mmHg 70%
    04:00 +20°C° 0 mm 2 m/s 755 mmHg 72%
    05:00 +20°C° 0 mm 2 m/s 756 mmHg 74%
    06:00 +19°C° 0 mm 2 m/s 756 mmHg 77%
    07:00 +21°C° 0 mm 2 m/s 757 mmHg 70%
    08:00 +23°C° 0 mm 1 m/s 757 mmHg 63%
    09:00 +25°C° 0 mm 1 m/s 758 mmHg 56%
    10:00 +27°C° 0 mm 2 m/s 758 mmHg 49%
    11:00 +28°C° 0 mm 2 m/s 757 mmHg 43%
    12:00 +30°C° 0 mm 2 m/s 757 mmHg 36%
    13:00 +31°C° 0 mm 2 m/s 756 mmHg 34%
    14:00 +31°C° 0 mm 2 m/s 755 mmHg 31%
    15:00 +33°C° 0 mm 3 m/s 755 mmHg 29%
    16:00 +30°C° 0 mm 3 m/s 755 mmHg 32%
    17:00 +29°C° 0 mm 3 m/s 755 mmHg 34%
    18:00 +27°C° 0 mm 3 m/s 755 mmHg 37%
    19:00 +26°C° 0 mm 3 m/s 755 mmHg 41%
    20:00 +25°C° 0 mm 3 m/s 756 mmHg 45%
    21:00 +24°C° 0 mm 2 m/s 756 mmHg 48%
    22:00 +23°C° 0 mm 2 m/s 756 mmHg 47%
    23:00 +22°C° 0 mm 3 m/s 756 mmHg 45%

    26 Janeiro, Sexta-feira

    Tempo Temperatura Precipitação Vento Pressão Humidade
    00:00 +21°C° 0 mm 3 m/s 756 mmHg 43%
    01:00 +21°C° 0 mm 3 m/s 756 mmHg 44%
    02:00 +20°C° 0 mm 3 m/s 756 mmHg 45%
    03:00 +20°C° 0 mm 3 m/s 755 mmHg 47%
    04:00 +19°C° 0 mm 3 m/s 756 mmHg 49%
    05:00 +19°C° 0 mm 3 m/s 756 mmHg 51%
    06:00 +19°C° 0 mm 3 m/s 756 mmHg 53%
    07:00 +20°C° 0 mm 3 m/s 757 mmHg 49%
    08:00 +22°C° 0 mm 3 m/s 758 mmHg 46%
    09:00 +24°C° 0 mm 3 m/s 759 mmHg 43%
    10:00 +26°C° 0 mm 3 m/s 758 mmHg 38%
    11:00 +28°C° 0 mm 3 m/s 758 mmHg 33%
    12:00 +30°C° 0 mm 3 m/s 758 mmHg 27%
    13:00 +30°C° 0 mm 4 m/s 757 mmHg 26%
    14:00 +30°C° 0 mm 4 m/s 756 mmHg 25%
    15:00 +32°C° 0 mm 4 m/s 755 mmHg 24%
    16:00 +29°C° 0 mm 3 m/s 755 mmHg 27%
    17:00 +27°C° 0 mm 3 m/s 755 mmHg 30%
    18:00 +26°C° 0 mm 2 m/s 755 mmHg 33%
    19:00 +25°C° 0 mm 2 m/s 756 mmHg 35%
    20:00 +24°C° 0 mm 2 m/s 756 mmHg 37%
    21:00 +23°C° 0 mm 2 m/s 757 mmHg 39%
    22:00 +23°C° 0 mm 2 m/s 757 mmHg 40%
    23:00 +21°C° 0 mm 2 m/s 757 mmHg 41%

    27 Janeiro, Sábado

    Tempo Temperatura Precipitação Vento Pressão Humidade
    00:00 +21°C° 0 mm 2 m/s 757 mmHg 43%
    01:00 +20°C° 0 mm 2 m/s 757 mmHg 44%
    02:00 +20°C° 0 mm 2 m/s 757 mmHg 45%
    03:00 +19°C° 0 mm 2 m/s 756 mmHg 46%
    04:00 +19°C° 0 mm 2 m/s 757 mmHg 47%
    05:00 +19°C° 0 mm 2 m/s 757 mmHg 49%
    06:00 +18°C° 0 mm 2 m/s 757 mmHg 51%
    07:00 +20°C° 0 mm 2 m/s 758 mmHg 48%
    08:00 +21°C° 0 mm 2 m/s 758 mmHg 46%
    09:00 +24°C° 0 mm 3 m/s 759 mmHg 43%
    10:00 +25°C° 0 mm 2 m/s 759 mmHg 39%
    11:00 +27°C° 0 mm 2 m/s 758 mmHg 34%
    12:00 +28°C° 0 mm 2 m/s 758 mmHg 30%
    13:00 +29°C° 0 mm 2 m/s 757 mmHg 28%
    14:00 +30°C° 0 mm 3 m/s 757 mmHg 27%
    15:00 +30°C° 0 mm 3 m/s 756 mmHg 25%
    16:00 +29°C° 0 mm 3 m/s 756 mmHg 27%
    17:00 +27°C° 0 mm 3 m/s 756 mmHg 29%
    18:00 +26°C° 0 mm 3 m/s 756 mmHg 32%
    19:00 +25°C° 0 mm 2 m/s 757 mmHg 34%
    20:00 +24°C° 0 mm 2 m/s 757 mmHg 36%
    21:00 +21°C° 0 mm 2 m/s 757 mmHg 38%
    22:00 +21°C° 0 mm 2 m/s 757 mmHg 39%
    23:00 +21°C° 0 mm 1 m/s 757 mmHg 39%
    Mostrar mais